Theta_e
324 314 305 306 299 296 292 297 297 299 300 302 304 310 316 316 315 307 326 336 340 343 347 349 350 353 353 352 351 350 349 348 346 346 345 344 343 343 342 343 344 343 340 340 345 346 345 344 344
322 311 306 302 294 290 292 296 298 301 303 306 309 309 313 314 323 322 328 340 342 345 347 348 347 351 352 351 350 349 349 348 346 345 344 343 342 341 341 340 341 341 339 340 340 342 341 340 339
312 310 301 298 292 290 291 296 298 301 302 305 306 317 319 319 325 325 334 341 343 345 347 346 346 351 351 350 349 349 348 348 347 344 342 341 340 340 339 341 341 340 336 337 338 339 338 337 336
304 304 300 294 293 290 291 292 294 295 300 301 302 308 323 328 327 329 339 341 342 343 346 343 347 350 350 349 348 348 348 347 345 343 340 338 338 341 342 340 340 338 337 337 337 336 335 334 333
305 301 294 294 292 289 293 294 295 296 296 298 304 315 320 329 332 331 338 340 339 342 344 345 345 347 348 348 348 347 347 346 344 343 342 341 339 341 341 340 338 337 336 335 335 335 334 333 333
304 297 292 292 289 291 294 296 294 296 300 303 304 316 321 331 328 331 336 337 341 342 344 344 337 340 343 345 346 346 345 345 344 343 342 342 341 341 341 340 340 339 338 337 336 336 335 333 331
300 298 293 292 290 293 298 299 296 294 296 296 306 311 319 324 324 331 331 337 341 343 343 342 342 339 335 339 340 341 343 343 342 342 341 340 339 340 340 340 340 338 336 335 334 333 333 332 332
302 301 296 295 292 290 299 300 300 295 295 299 301 296 306 299 310 320 330 333 340 342 343 340 341 341 340 341 334 335 337 338 339 338 335 333 334 335 335 334 337 339 336 336 336 335 335 333 332
309 298 294 294 295 296 301 299 302 301 296 296 297 295 297 301 302 303 304 305 306 312 332 340 340 339 339 341 335 330 331 333 333 332 328 327 332 333 331 330 334 337 337 337 336 335 334 332 329
302 297 296 300 299 297 302 297 299 298 294 294 294 298 299 300 299 299 300 300 302 304 308 310 332 339 339 341 339 338 335 335 335 334 332 332 331 331 332 327 328 332 332 335 336 334 330 325 319
300 296 302 300 300 301 301 298 299 295 292 293 292 294 296 297 297 297 299 299 300 303 304 307 310 314 336 339 338 338 337 337 337 333 331 332 331 328 328 327 327 326 323 328 330 327 322 318 313
299 302 303 302 301 301 299 300 296 295 294 297 297 296 295 294 294 295 296 297 298 301 302 305 308 309 313 337 337 336 334 334 335 335 332 330 326 326 325 325 325 324 325 324 324 321 320 312 308
298 301 300 303 300 300 303 299 296 295 298 298 296 294 293 293 293 294 295 295 297 298 301 304 305 306 309 316 330 333 334 334 334 334 335 332 327 325 326 326 326 324 323 322 321 320 318 310 306
294 296 300 300 299 298 294 295 297 295 296 294 294 292 292 292 292 293 293 293 293 296 298 301 303 305 307 310 312 322 334 334 333 333 333 333 330 326 326 327 327 325 323 322 322 321 314 309 305
293 289 288 287 291 293 295 288 288 293 292 290 290 291 291 291 292 291 292 292 293 294 296 298 301 302 303 305 310 312 317 332 334 333 332 331 329 328 326 327 327 326 325 321 321 319 313 309 304
287 286 282 285 285 291 292 282 288 291 289 287 288 288 289 289 290 291 292 292 293 293 293 295 298 300 301 302 305 308 312 318 331 333 333 332 331 330 327 327 327 326 325 325 324 319 313 307 303
281 277 279 283 285 288 289 282 287 290 288 286 286 287 287 288 289 290 291 291 292 292 293 293 295 295 298 300 302 304 308 310 314 321 332 332 332 331 329 327 326 324 325 325 321 312 311 306 304
275 276 276 275 281 286 283 282 285 286 286 285 285 286 285 286 287 289 290 290 289 290 291 292 293 294 295 298 300 300 302 305 312 315 318 329 332 331 329 327 326 324 323 321 316 314 310 307 304
276 274 273 276 281 283 282 281 282 284 283 283 282 283 284 285 287 288 289 289 288 288 288 289 291 292 293 294 296 297 296 301 303 309 308 310 321 330 329 328 326 324 322 320 317 314 309 304 304
276 274 273 277 281 283 281 280 282 282 282 283 282 282 282 284 285 286 287 287 287 287 288 288 289 290 291 293 294 296 297 299 301 301 304 307 309 312 327 328 326 324 322 320 316 313 305 304 304
275 273 273 274 278 282 280 278 279 281 282 282 282 283 284 283 283 284 285 285 286 286 286 287 288 289 289 291 293 294 295 296 296 298 299 301 305 309 311 327 327 325 323 320 318 316 311 305 302
274 277 276 276 274 269 280 269 276 277 278 280 280 279 280 282 283 284 284 285 285 286 287 287 288 288 289 290 290 291 291 290 294 296 298 299 301 303 307 313 326 326 324 322 319 318 315 313 303
275 277 277 277 274 271 274 267 274 278 275 276 277 279 279 281 282 283 283 284 285 285 285 286 287 287 288 288 289 289 290 291 292 295 295 296 298 301 304 308 313 323 324 322 321 318 314 313 311
278 278 276 278 274 262 269 268 269 274 274 275 276 278 279 280 281 282 284 284 284 284 285 286 286 286 287 287 288 287 288 289 289 290 292 294 296 298 299 301 303 311 316 320 320 318 314 312 313
276 271 257 260 259 262 271 266 270 274 276 275 275 276 278 279 279 280 280 282 282 283 284 285 286 285 286 286 287 287 287 288 289 289 290 291 293 294 295 297 298 301 309 313 315 316 315 313 311
273 269 261 255 259 262 270 262 269 277 277 276 277 277 278 278 279 280 280 281 281 282 283 284 284 284 285 286 286 287 287 287 288 288 289 290 291 293 294 295 296 298 303 309 310 309 309 310 309
271 267 274 258 252 257 266 272 277 278 275 274 275 276 276 278 279 279 280 280 281 281 282 282 283 284 284 285 286 286 286 286 286 287 288 288 289 292 293 293 294 296 298 303 306 307 306 306 305
274 275 263 258 253 252 262 264 267 274 276 274 273 274 275 277 278 279 279 280 280 281 281 282 282 283 284 284 285 286 285 286 286 287 286 286 287 289 291 291 292 293 295 298 302 304 304 303 304
270 269 268 263 262 254 254 262 268 274 276 273 272 275 276 277 277 278 279 280 280 280 280 280 281 282 282 284 285 285 285 285 286 286 286 285 286 287 289 291 290 291 292 295 298 300 302 301 302
273 269 268 258 259 262 262 262 275 274 275 275 276 278 279 279 278 278 279 279 279 280 280 280 281 281 282 283 284 284 284 284 284 284 285 285 284 286 286 289 289 289 290 292 294 297 299 299 299
Wind_Speed
9 7 2 5 5 5 2 5 2 3 4 1 3 7 9 3 3 2 0 7 15 14 11 12 15 15 14 16 15 15 14 14 15 15 15 13 13 12 12 13 13 11 13 11 12 15 13 12 12
4 4 5 2 5 4 5 5 3 1 2 4 5 5 9 6 4 3 5 6 15 14 11 11 13 15 17 16 15 15 14 14 14 15 14 14 13 12 11 12 10 11 11 12 11 12 11 10 10
0 4 4 4 4 3 2 4 6 3 6 6 4 8 6 8 8 3 1 12 12 12 10 9 12 15 16 15 14 14 14 13 13 13 13 13 13 12 12 10 10 10 12 12 11 10 10 9 8
3 3 3 4 6 8 6 9 8 5 9 11 2 8 6 6 10 5 8 11 11 9 8 8 12 15 15 14 13 13 14 13 13 12 13 13 13 12 11 12 12 11 11 11 11 10 9 8 7
4 2 3 4 5 2 7 6 9 12 5 8 6 5 5 9 9 9 9 10 12 7 7 6 10 12 12 13 13 12 12 13 13 12 12 12 13 12 12 13 12 12 11 11 11 10 9 7 6
4 3 4 6 5 5 6 10 5 14 10 9 8 6 5 9 16 10 4 8 9 11 8 6 8 10 10 10 10 11 11 11 11 12 13 13 12 12 12 12 12 12 11 10 9 9 8 7 6
6 5 2 5 4 6 11 14 16 9 20 21 7 6 3 20 23 13 8 7 8 10 10 6 6 7 8 10 7 7 8 9 9 10 10 11 10 10 10 10 10 11 10 10 9 8 7 5 4
4 3 2 6 2 4 10 9 9 12 19 3 13 11 8 18 21 20 20 16 10 4 8 8 7 7 5 6 12 8 8 7 8 8 9 7 7 7 8 8 9 10 10 10 8 7 5 3 2
0 4 5 2 3 3 7 12 11 17 21 22 12 15 6 16 24 26 21 24 19 19 14 0 7 7 7 8 7 9 9 8 7 6 7 7 4 5 7 6 8 9 10 10 8 6 4 2 2
3 3 5 7 3 2 6 22 12 15 21 15 22 22 23 24 24 24 23 18 21 22 19 16 14 6 8 6 7 5 6 5 5 4 6 4 5 4 5 5 8 8 8 8 8 7 5 2 1
1 4 10 9 8 8 8 17 17 16 18 16 17 18 22 25 24 22 20 19 18 17 16 20 18 19 4 6 6 4 4 3 5 7 5 4 4 4 3 3 3 4 6 3 4 3 2 2 1
8 8 5 5 5 3 9 7 17 20 13 15 16 16 21 25 22 21 19 20 20 20 21 20 18 18 17 7 5 7 5 6 5 7 7 4 3 4 4 3 4 4 3 5 4 3 3 3 2
9 5 8 10 8 6 10 12 14 15 15 17 19 24 23 20 20 16 16 16 19 22 21 19 18 18 16 14 8 3 5 6 8 8 10 7 5 5 4 4 5 4 4 4 4 4 4 4 4
6 8 7 4 11 14 21 15 8 14 14 21 23 22 21 22 21 18 22 22 21 19 20 19 20 18 16 12 13 10 5 5 6 6 8 12 8 7 6 6 6 6 5 4 4 5 5 5 4
11 15 14 13 6 7 7 22 15 12 15 20 20 17 19 21 21 22 19 19 19 17 18 21 19 19 18 17 12 9 10 8 5 7 8 11 10 10 9 8 7 7 6 6 4 4 4 3 3
6 6 5 6 14 7 10 8 12 11 16 17 16 15 16 19 17 18 19 18 18 19 20 19 17 21 19 17 13 10 10 10 6 5 6 11 11 12 10 8 8 8 6 6 6 6 4 4 4
8 3 5 3 17 1 7 7 8 10 14 15 13 13 14 15 18 18 18 17 18 18 19 21 20 21 20 17 13 13 12 9 9 9 6 8 11 10 10 9 9 7 7 7 7 3 4 5 4
2 4 4 5 9 19 17 12 8 9 13 12 11 11 13 14 15 14 16 16 17 18 17 19 17 21 20 14 13 10 11 11 9 10 11 15 9 11 9 8 9 9 7 7 5 5 4 3 4
6 5 3 3 4 8 11 10 7 7 10 10 9 8 10 12 10 12 13 15 16 18 19 20 19 20 16 15 16 15 14 11 12 12 16 17 17 9 11 10 9 8 10 11 11 6 6 2 4
8 4 5 3 5 11 9 9 6 6 7 8 8 8 8 9 11 13 14 14 15 16 17 18 18 18 15 12 12 11 11 8 8 11 14 15 17 16 12 10 10 12 9 9 10 9 4 3 8
4 6 4 3 6 8 11 4 4 4 5 7 7 5 6 7 9 11 12 12 13 15 15 15 16 16 15 16 11 11 10 10 11 14 14 17 19 17 19 13 11 11 12 11 12 12 14 8 8
2 4 2 3 3 4 3 2 4 4 3 5 5 6 6 6 6 7 8 11 11 10 12 13 14 15 15 16 14 15 12 14 12 13 13 14 18 19 18 19 15 14 11 13 13 13 13 10 10
5 9 2 2 3 4 6 5 2 4 2 3 5 6 6 7 7 7 7 7 7 7 8 10 13 14 15 15 15 12 12 11 11 11 17 16 15 17 18 20 21 15 11 14 15 14 15 12 12
9 3 6 5 3 5 5 5 4 5 5 3 2 4 4 5 6 5 5 6 6 7 8 8 11 13 14 14 15 15 15 15 14 16 14 13 13 12 16 19 17 18 13 12 13 16 17 15 15
10 7 5 7 7 5 2 4 7 5 4 5 2 2 5 5 5 6 6 6 6 7 7 9 11 12 12 13 14 14 14 14 14 14 13 18 14 13 15 18 18 16 18 12 10 10 13 14 14
5 4 6 4 2 6 7 4 4 6 6 4 1 2 5 6 6 7 7 6 6 7 7 7 9 10 12 12 13 11 12 9 10 11 12 11 12 13 18 18 17 19 20 15 9 6 6 7 9
6 7 4 8 1 5 4 5 2 3 3 1 3 5 7 8 8 8 8 6 7 7 8 7 8 9 10 11 11 13 12 12 12 14 12 10 13 14 17 19 19 18 18 19 12 8 8 8 8
6 1 4 5 3 5 5 5 6 7 6 3 3 6 7 7 9 9 8 7 5 5 6 7 7 8 9 10 11 11 12 12 12 12 14 14 15 16 18 20 19 18 17 18 15 10 7 8 8
5 3 6 5 4 6 2 8 7 7 6 6 3 5 8 8 8 9 7 6 6 6 6 7 7 7 8 9 11 12 13 13 12 11 13 14 15 16 16 18 20 19 17 16 16 13 11 9 11
1 3 4 7 6 2 3 10 3 1 3 0 7 14 15 9 7 7 7 6 6 7 7 7 7 7 6 6 10 11 12 13 13 13 14 15 16 16 16 17 17 19 18 16 16 15 12 10 12
Wind_Direction
316 311 83 39 57 61 311 312 9 1 24 316 303 87 110 47 26 134 44 126 130 145 149 147 148 147 135 131 134 128 131 133 130 126 122 117 112 110 107 100 103 110 108 111 86 89 88 94 96
332 352 43 69 86 61 300 305 62 27 358 341 62 86 42 42 25 48 92 141 142 143 148 148 144 147 139 137 137 137 136 135 133 130 128 126 124 121 119 113 111 114 118 109 107 97 95 89 88
256 28 71 87 97 124 154 338 318 356 25 16 63 62 52 329 326 23 101 136 134 136 142 143 141 141 139 140 140 138 136 136 133 133 131 130 130 132 130 129 115 120 122 121 116 112 106 100 93
54 14 43 85 67 6 9 325 315 337 1 21 28 55 63 9 348 7 110 118 119 124 127 145 139 143 142 141 140 140 139 137 136 135 135 134 137 134 131 117 116 124 126 126 126 120 111 98 84
27 59 60 75 76 18 10 342 333 40 34 347 31 50 68 349 358 30 116 123 129 109 117 139 132 137 142 142 142 143 143 142 141 139 138 134 137 137 133 130 133 135 132 130 130 126 118 105 84
56 61 54 90 84 358 352 353 9 40 25 11 61 105 57 335 12 344 128 126 133 129 133 127 128 134 141 141 142 143 145 146 146 147 144 144 144 143 142 144 144 139 136 134 130 125 122 116 107
88 66 121 165 114 28 11 331 31 15 32 16 319 76 64 11 348 345 130 125 129 137 140 137 141 145 153 144 126 136 141 144 149 151 151 151 152 147 143 140 145 147 142 135 132 130 127 123 116
81 82 128 36 330 92 7 12 20 35 35 290 21 23 18 352 5 25 42 20 21 113 151 152 153 155 161 162 149 156 153 151 156 158 160 155 152 154 151 149 153 150 146 140 137 134 131 123 94
304 90 134 74 344 316 31 33 19 44 58 52 48 46 356 12 25 34 27 21 14 11 355 179 162 163 158 160 168 163 158 158 160 159 153 154 165 165 162 168 163 156 152 153 153 152 146 119 29
57 95 115 85 46 331 67 40 37 51 36 32 26 23 20 29 32 31 27 20 15 10 1 9 336 193 158 166 163 183 172 175 173 180 177 177 172 178 177 174 170 166 166 164 165 166 160 146 3
109 105 123 65 58 18 76 53 41 42 48 38 36 25 24 27 31 31 26 20 13 5 5 7 353 356 250 177 166 180 171 174 180 176 181 188 180 183 181 181 182 174 178 181 185 183 176 207 188
93 111 91 105 49 72 77 75 61 57 63 59 47 43 38 32 28 24 22 15 10 9 9 3 1 359 356 312 188 185 181 175 178 186 185 189 198 198 192 182 190 190 184 189 192 200 202 185 170
87 133 127 132 157 91 113 90 95 59 54 50 44 40 39 35 30 29 25 20 16 13 7 4 6 357 353 356 341 256 210 194 188 188 187 183 194 207 191 198 187 196 190 194 196 193 204 189 179
76 86 127 104 77 86 74 63 51 45 57 54 48 40 33 32 24 23 25 19 15 10 8 4 7 0 358 354 350 347 311 237 209 205 198 196 194 196 198 200 204 201 196 199 202 192 187 203 175
137 87 62 18 8 138 107 44 51 43 57 58 57 51 42 33 23 25 23 20 12 10 6 9 4 2 2 0 344 352 344 313 247 211 211 204 202 202 195 196 205 205 201 201 202 206 176 176 171
35 53 71 25 11 16 88 66 37 40 56 53 49 45 42 37 30 23 20 19 13 11 11 7 8 4 1 0 351 347 348 338 306 257 233 215 213 207 194 198 203 198 195 202 202 185 179 188 183
12 68 43 38 8 123 92 102 46 44 60 59 46 43 39 34 31 25 22 19 14 13 10 10 7 8 1 356 355 352 347 339 341 340 295 240 220 217 213 202 203 194 196 203 192 166 168 179 188
11 56 30 42 0 79 88 96 62 52 62 58 48 42 39 32 28 23 23 18 17 16 13 14 10 5 4 359 353 354 356 347 343 338 342 307 235 222 214 223 217 188 195 200 178 173 173 162 162
100 84 53 356 51 75 96 96 79 60 62 57 46 38 38 32 21 22 22 19 19 18 15 14 10 6 6 2 359 355 352 344 343 347 340 339 337 249 224 216 213 206 198 200 189 163 178 143 137
51 64 2 295 344 101 109 91 78 65 64 58 48 40 34 25 24 23 23 20 20 15 13 13 11 8 9 3 358 350 342 344 336 340 341 344 335 326 283 230 221 209 207 206 192 180 150 153 171
46 82 329 237 6 67 119 115 104 64 65 61 43 27 17 18 14 16 18 16 14 14 8 8 6 7 9 4 353 353 351 353 349 350 343 340 340 329 336 277 227 219 209 208 204 195 187 177 191
311 102 268 266 81 169 148 241 202 147 80 48 30 21 8 7 358 7 11 15 13 6 4 3 2 3 4 1 2 4 0 353 346 336 333 335 337 336 324 330 274 223 220 212 209 206 199 181 191
267 322 213 180 95 70 342 74 260 178 63 32 23 13 8 6 357 355 358 356 355 354 357 356 359 1 0 0 2 358 354 345 339 338 337 337 336 339 336 337 328 300 229 223 213 209 206 203 191
296 18 44 53 64 36 259 117 232 202 176 142 25 352 352 0 347 346 342 346 343 346 353 353 2 356 355 357 356 355 349 342 341 344 341 339 334 334 335 335 327 317 309 276 228 210 208 204 211
15 43 357 2 11 212 25 36 241 165 179 138 140 349 354 357 351 347 354 350 340 345 343 349 353 350 350 349 351 350 343 340 338 338 336 335 334 333 332 332 329 323 315 301 287 269 217 223 211
357 93 135 199 313 288 335 260 286 185 119 120 112 12 1 332 321 317 326 333 327 336 341 338 341 338 343 341 342 338 341 336 332 332 328 328 328 326 326 325 324 322 318 302 289 266 281 273 228
313 41 145 103 71 33 274 289 313 188 136 51 350 360 327 313 311 307 315 324 318 336 334 332 333 330 332 330 334 333 336 332 328 327 325 325 324 324 325 322 320 319 319 311 297 268 245 223 219
82 104 42 9 57 304 293 275 244 223 222 247 316 325 304 307 307 299 307 308 309 313 310 322 329 318 315 319 329 326 325 325 323 322 323 324 320 322 323 323 320 319 318 314 299 278 255 238 231
352 35 58 110 125 167 287 269 217 214 211 224 266 295 284 288 289 286 288 294 300 300 313 308 317 313 312 320 322 321 321 320 320 318 319 320 318 319 320 320 319 317 314 312 301 286 271 242 241
135 170 108 115 273 222 157 270 293 73 259 306 297 302 302 290 290 276 277 294 290 278 292 301 307 307 300 290 312 312 314 316 318 317 317 319 316 315 316 315 317 314 313 311 306 290 275 256 250